Location: Gro� Glienicke
(52.4675°N, 13.1079°E)
Time: 02:59:56
(UTC+00:00)

Cosmos 2366 rocket - Pass Details

Date: 06 July 2020
Orbit: 954 x 998 km, 82.9° (Epoch: 04 August)

Event Time Altitude Azimuth Distance (km) Brightness Sun altitude
Exits shadow 23:21:53 18° 208° (SSW) 2,242 5.4 -14.9°
Maximum altitude 23:26:42 62° 285° (WNW) 1,122 4.4 -14.9°
Drops below altitude 10° 23:33:01 10° 6° (N) 2,769 7.8 -14.8°
Sets 23:35:36 0° 10° (N) 3,718 9.0 -14.8°
